Weather History for KBED - January, 2012

Change the Weather History Date:

Saturday, January 14, 2012

  Actual Average Record
Temperature  
Mean Temperature 24 °F -  
Max Temperature 32 °F 32 °F 62 °F (2005)
Min Temperature 15 °F 12 °F -6 °F (1988)
Degree Days  
Heating Degree Days 40    
Moisture  
Dew Point 12 °F    
Average Humidity 54    
Maximum Humidity 64    
Minimum Humidity 43    
Precipitation  
Precipitation 0.00 in - - ()
Sea Level Pressure  
Sea Level Pressure 29.84 in    
Wind  
Wind Speed 14 mph (West)    
Max Wind Speed 18 mph    
Max Gust Speed 26 mph    
Visibility 10 miles    
Events      
Averages and records for this station are not official NWS values.
T = Trace of Precipitation, MM = Missing Value Source: NWS Daily Summary

Daily Weather History Graph

Daily Weather History Graph

Search for Another Location

Airport or City:

Trip Planner

Search our weather history database for the weather conditions in past years. The results will help you decide how hot, cold, wet, or windy it might be!

Date:

Astronomy

Jan. 14, 2012 Rise Set
Actual Time 7:12 AM EST 4:35 PM EST
Civil Twilight 6:41 AM EST 5:06 PM EST
Nautical Twilight 6:06 AM EST 5:41 PM EST
Astronomical Twilight 5:32 AM EST 6:15 PM EST
Moon 11:02 PM EST (1/14) 9:47 AM EST (1/14)
Length of Visible Light 10h 25m
Length of Day
9h 23m
Waning Gibbous, 69% of the Moon is Illuminated
Jan 14
Waning Gibbous
Jan 16
Last Quarter
Jan 23
New
Jan 30
First Quarter
Feb 7
Full

Hourly Weather History & Observations

Time (EST) Temp. Windchill Dew Point Humidity Pressure Visibility Wind Dir Wind Speed Gust Speed Precip Events Conditions
12:56 AM 30.0 °F 17.9 °F 18.0 °F 61% 29.63 in 10.0 mi WSW 18.4 mph 26.5 mph N/A   Scattered Clouds
1:56 AM 30.9 °F 20.7 °F 18.0 °F 59% 29.67 in 10.0 mi WSW 13.8 mph - N/A   Overcast
2:56 AM 30.0 °F 21.1 °F 18.0 °F 61% 29.70 in 10.0 mi WSW 10.4 mph - N/A   Mostly Cloudy
3:56 AM 30.0 °F 20.5 °F 17.1 °F 59% 29.70 in 10.0 mi WSW 11.5 mph - N/A   Scattered Clouds
4:56 AM 28.9 °F 18.6 °F 17.1 °F 61% 29.72 in 10.0 mi WSW 12.7 mph 23.0 mph N/A   Partly Cloudy
5:56 AM 28.0 °F 19.3 °F 17.1 °F 63% 29.74 in 10.0 mi SW 9.2 mph - N/A   Clear
6:56 AM 28.4 °F 21.2 °F 15.8 °F 59% 29.71 in 10.0 mi WSW 6.9 mph - N/A   Scattered Clouds
7:56 AM 28.0 °F 18.6 °F 17.1 °F 63% 29.79 in 10.0 mi SW 10.4 mph 17.3 mph N/A   Scattered Clouds
8:56 AM 30.0 °F 19.1 °F 16.0 °F 56% 29.81 in 10.0 mi West 15.0 mph 21.9 mph N/A   Scattered Clouds
9:56 AM 30.2 °F 18.5 °F 14.0 °F 51% 29.79 in 10.0 mi NW 17.3 mph 26.5 mph N/A   Scattered Clouds
10:56 AM 30.0 °F 17.9 °F 12.9 °F 49% 29.84 in 10.0 mi WNW 18.4 mph 26.5 mph N/A   Mostly Cloudy
11:56 AM 32.0 °F 21.2 °F 12.9 °F 45% 29.82 in 10.0 mi West 16.1 mph 25.3 mph N/A   Clear
12:56 PM 32.0 °F 20.8 °F 12.9 °F 45% 29.82 in 10.0 mi WNW 17.3 mph 24.2 mph N/A   Partly Cloudy
1:56 PM 30.9 °F 19.4 °F 12.9 °F 47% 29.82 in 10.0 mi WNW 17.3 mph 24.2 mph N/A   Partly Cloudy
2:56 PM 30.0 °F 20.5 °F 10.9 °F 45% 29.86 in 10.0 mi West 11.5 mph 21.9 mph N/A   Clear
3:56 PM 28.0 °F 16.1 °F 8.1 °F 43% 29.89 in 10.0 mi West 16.1 mph 25.3 mph N/A   Mostly Cloudy
4:56 PM 26.1 °F 16.2 °F 7.0 °F 44% 29.91 in 10.0 mi West 10.4 mph 18.4 mph N/A   Mostly Cloudy
5:56 PM 24.1 °F 12.0 °F 6.1 °F 46% 29.94 in 10.0 mi West 13.8 mph 20.7 mph N/A   Clear
6:56 PM 23.0 °F 11.7 °F 6.1 °F 48% 29.97 in 10.0 mi West 11.5 mph 20.7 mph N/A   Partly Cloudy
7:56 PM 21.9 °F 7.8 °F 6.1 °F 51% 29.99 in 10.0 mi WNW 17.3 mph 21.9 mph N/A   Partly Cloudy
8:56 PM 21.0 °F 7.6 °F 6.1 °F 53% 30.02 in 10.0 mi WNW 15.0 mph - N/A   Clear
9:56 PM 19.4 °F 5.0 °F 6.8 °F 58% 29.98 in 10.0 mi WNW 16.1 mph - N/A   Clear
10:56 PM 17.1 °F 5.8 °F 6.1 °F 62% 30.05 in 10.0 mi WNW 9.2 mph - N/A   Clear
11:56 PM 15.1 °F 3.3 °F 5.0 °F 64% 30.05 in 10.0 mi NW 9.2 mph - N/A   Partly Cloudy